Flag for Peru Weather past 2 weeks in Chiclayo, Lambayeque, Peru

Now
81 °F

Passing clouds.


Feels Like: 82 °F
Forecast: 68 / 83 °F
Wind: 14 mph from Southwest

Location: Chiclayo Airport

Current Time: Jan 26, 2015 at 2:01:28 PM

Latest Report: Jan 26, 2015 at 1:00 PM


Visibility: N/A

Pressure: 29.86 "Hg

Humidity: 58%

Dew point: 64 °F

Location of ChiclayoLocation

Historic Weather in Chiclayo — Graph

°F

Chiclayo temperature yesterday

Maximum temperature yesterday: 84 °F (at 2:00 PM)
Minimum temperature yesterday: 68 °F (at 6:00 AM)
Average temperature yesterday: 76 °F

Past Weeks' High & Low Weather Summary

 TemperatureHumidityPressure
High84 °F (Jan 12, 12:00 PM)94% (Jan 22, 8:00 AM)30.01 "Hg (Jan 22, 8:00 AM)
Low68 °F (Jan 14, 6:00 AM)51% (Jan 24, 2:00 PM)29.71 "Hg (Jan 25, 4:00 PM)
Average74 °F73%29.89 "Hg
* Reported Jan 11 1:00 PM — Jan 26 1:00 PM, Chiclayo, Weather by CustomWeather, © 2014

Note: Actual official high and low records may vary slightly from our data, if they occured in-between our weather recording intervals... More about our weather records

Advertising

Chiclayo weather history for previous 24 hours

 ConditionsComfort  
Time TempWeatherWind HumidityBarometerVisibility
1:00 PM
Jan 26
81 °FPassing clouds.14 mph58%29.86 "HgN/A
12:00 PM81 °FPassing clouds.15 mph62%29.86 "HgN/A
11:00 AM79 °FPassing clouds.9 mph65%29.89 "HgN/A
10:00 AM77 °FSunny.9 mph69%29.89 "Hg10 mi
9:00 AM73 °FSunny.7 mph78%29.89 "Hg10 mi
8:00 AM72 °FSunny.7 mph78%29.89 "Hg10 mi
7:00 AM70 °FSunny.8 mph83%29.86 "Hg10 mi
6:00 AM70 °FClear.12 mph83%29.83 "Hg10 mi
5:00 AM70 °FClear.10 mph83%29.80 "Hg10 mi
4:00 AM70 °FClear.10 mph83%29.80 "Hg10 mi
3:00 AM70 °FClear.10 mph83%29.80 "Hg10 mi
2:00 AM70 °FClear.13 mph83%29.83 "Hg10 mi
1:00 AM70 °FPassing clouds.13 mph83%29.83 "HgN/A
12:00 AM70 °FClear.15 mph83%29.86 "Hg10 mi
11:00 PM
Jan 25
70 °FClear.13 mph83%29.86 "Hg10 mi
10:00 PM70 °FClear.13 mph83%29.86 "Hg10 mi
9:00 PM72 °FClear.15 mph78%29.83 "Hg10 mi
8:00 PM72 °FClear.17 mph78%29.80 "Hg10 mi
7:00 PM75 °FClear.18 mph69%29.77 "Hg10 mi
6:00 PM77 °FSunny.21 mph65%29.74 "Hg10 mi
5:00 PM81 °FSunny.18 mph58%29.71 "Hg10 mi
4:00 PM82 °FSunny.21 mph55%29.71 "Hg10 mi
3:00 PM82 °FSunny.18 mph55%29.74 "Hg10 mi
2:00 PM84 °FSunny.17 mph55%29.77 "Hg10 mi
Weather by CustomWeather, © 2014

See weather overviewHow to use our weather pages